Creek Data

    Home     View Charts     View Raw Data     Messages

ID Distance Battery Voltage Battery Current Internal Temp Internal Humidity External Temp Solar Input rssi snr Time Stamp Record
64357 14.8 3.79 -5 33 49 34 0 -80 8 01/25/2026 04:00 AM 47114
64356 14.8 3.74 -5 33 49 35 0 -82 8 01/25/2026 03:45 AM 47113
64355 14.8 3.75 -5 32 49 35 0 -83 8 01/25/2026 03:30 AM 47112
64354 14.8 3.75 -5 32 49 35 0.1 -84 8 01/25/2026 03:15 AM 47111
64353 14.8 3.75 -5 32 50 35 0 -91 8 01/25/2026 03:00 AM 47110
64352 14.8 3.80 -5 32 49 33 0 -85 8 01/25/2026 02:45 AM 47109
64351 14.8 3.80 -5 32 50 34 0 -81 8 01/25/2026 02:30 AM 47108
64350 14.8 3.75 -5 33 49 33 0 -78 8 01/25/2026 02:15 AM 47107
64349 14.8 3.75 -5 33 50 36 0 -76 8 01/25/2026 02:00 AM 47106
64348 14.8 3.75 -5 33 49 33 0 -75 9 01/25/2026 01:45 AM 47105
64347 14.8 3.75 -5 33 49 37 0 -75 8 01/25/2026 01:30 AM 47104
64346 14.8 3.76 -5 33 49 37 0 -75 8 01/25/2026 01:15 AM 47103
64345 14.8 3.76 -5 33 49 36 0 -75 9 01/25/2026 01:00 AM 47102
64344 14.8 3.80 -5 33 50 36 0.1 -76 8 01/25/2026 12:45 AM 47101
64343 14.8 3.76 -5 33 50 35 0 -76 9 01/25/2026 12:30 AM 47100
64342 14.8 3.76 -5 34 50 36 0 -76 8 01/25/2026 12:15 AM 47099
64341 14.8 3.76 -5 35 50 36 0.1 -76 8 01/25/2026 12:00 AM 47098
64340 14.8 3.76 -5 35 50 36 0 -76 8 01/24/2026 11:45 PM 47097
64339 14.8 3.81 -5 35 50 37 0.1 -76 8 01/24/2026 11:30 PM 47096
64338 14.8 3.76 -5 36 50 37 0.1 -75 8 01/24/2026 11:15 PM 47095
64337 14.8 3.76 -5 36 51 38 0 -76 8 01/24/2026 10:45 PM 47093
64336 14.8 3.81 -5 36 51 37 0 -76 9 01/24/2026 10:30 PM 47092
64335 14.8 3.81 -5 37 51 39 0 -76 8 01/24/2026 10:15 PM 47091
64334 14.8 3.76 -5 38 51 39 0 -76 9 01/24/2026 10:00 PM 47090
64333 14.8 3.77 -5 39 50 40 0 -76 9 01/24/2026 09:45 PM 47089